User: anonymous   Login
Location: Ocean City
(38.3360°N, 75.0850°W)
Time: 16:31:24
(UTC-04:00)
Language:

PRISM - Orbit

View from above orbital plane
View from above orbital plane
View from above satellite
View from above satellite

Ground track
Ground track

The orbit data is extracted from the following two-line orbital elements,

1 33493U 09002B   19138.84102093  .00000557  00000-0  54397-4 0  9991
2 33493  98.1221  58.6251 0013882 287.2229  72.7472 14.96620397560533
Epoch (UTC): 18 May 2019 20:11:04
Eccentricity: 0.0013882
inclination: 98.1221°
perigee height: 567 km
apogee height: 587 km
right ascension of ascending node: 58.6251°
argument of perigee: 287.2229°
revolutions per day: 14.96620397
mean anomaly at epoch: 72.7472°
orbit number at epoch: 56053

The dashed part of the orbit path shows where the satellite is in the earth's shadow,  

DLR